Time,TemperatureF,DewpointF,PressureIn,WindDirection,WindDirectionDegrees,WindSpeedMPH,WindSpeedGustMPH,Humidity,HourlyPrecipIn,Conditions,Clouds,dailyrainin,SoftwareType,DateUTC
2013-01-25 00:00:00,16.8,3.0,30.40,NW,318,8.0,13.0,54,0.00,,---,0.00,VWS V14.00,2013-01-25 05:00:00,
2013-01-25 00:01:00,16.8,3.0,30.40,NNW,344,5.0,8.0,54,0.00,,---,0.00,VWS V14.00,2013-01-25 05:01:00,
2013-01-25 00:03:00,16.8,3.0,30.40,NW,312,9.0,12.0,54,0.00,,---,0.00,VWS V14.00,2013-01-25 05:03:00,
2013-01-25 00:08:00,16.7,3.0,30.40,NW,309,5.0,15.0,54,0.00,,---,0.00,VWS V14.00,2013-01-25 05:08:00,
2013-01-25 00:13:00,16.6,3.3,30.39,West,273,6.0,10.0,55,0.00,,---,0.00,VWS V14.00,2013-01-25 05:13:00,
2013-01-25 00:18:00,16.6,3.3,30.39,WNW,296,8.0,13.0,55,0.00,,---,0.00,VWS V14.00,2013-01-25 05:18:00,
2013-01-25 00:23:00,16.4,3.1,30.39,NW,320,8.0,10.0,55,0.00,,---,0.00,VWS V14.00,2013-01-25 05:23:00,
2013-01-25 00:28:00,16.4,3.1,30.38,WNW,286,6.0,13.0,55,0.00,,---,0.00,VWS V14.00,2013-01-25 05:28:00,
2013-01-25 00:33:00,16.3,3.0,30.39,WNW,294,6.0,15.0,55,0.00,,---,0.00,VWS V14.00,2013-01-25 05:33:00,
2013-01-25 00:38:00,16.3,3.0,30.40,NW,323,5.0,11.0,55,0.00,,---,0.00,VWS V14.00,2013-01-25 05:38:00,
2013-01-25 00:43:00,16.2,3.3,30.40,WNW,290,12.0,12.0,56,0.00,,---,0.00,VWS V14.00,2013-01-25 05:43:00,
2013-01-25 00:48:00,16.2,3.3,30.40,NW,317,6.0,15.0,56,0.00,,---,0.00,VWS V14.00,2013-01-25 05:48:00,
2013-01-25 00:53:00,16.2,3.3,30.39,NW,316,9.0,15.0,56,0.00,,---,0.00,VWS V14.00,2013-01-25 05:53:00,
2013-01-25 00:58:00,16.2,3.3,30.39,NNW,331,6.0,13.0,56,0.00,,---,0.00,VWS V14.00,2013-01-25 05:58:00,
2013-01-25 01:03:00,16.2,3.3,30.39,NW,305,9.0,19.0,56,0.00,,---,0.00,VWS V14.00,2013-01-25 06:03:00,
2013-01-25 01:08:00,16.1,3.2,30.39,WNW,302,7.0,13.0,56,0.00,,---,0.00,VWS V14.00,2013-01-25 06:08:00,
2013-01-25 01:13:00,16.0,3.1,30.40,West,265,5.0,11.0,56,0.00,,---,0.00,VWS V14.00,2013-01-25 06:13:00,
2013-01-25 01:18:00,16.0,3.1,30.39,WNW,298,3.0,12.0,56,0.00,,---,0.00,VWS V14.00,2013-01-25 06:18:00,
2013-01-25 01:23:00,15.9,3.0,30.39,WNW,296,3.0,11.0,56,0.00,,---,0.00,VWS V14.00,2013-01-25 06:23:00,
2013-01-25 01:28:00,15.8,2.9,30.39,NNW,329,5.0,12.0,56,0.00,,---,0.00,VWS V14.00,2013-01-25 06:28:00,
2013-01-25 01:33:00,15.8,3.3,30.40,WNW,287,5.0,18.0,57,0.00,,---,0.00,VWS V14.00,2013-01-25 06:33:00,
2013-01-25 01:38:00,15.7,3.2,30.40,NNW,327,10.0,10.0,57,0.00,,---,0.00,VWS V14.00,2013-01-25 06:38:00,
2013-01-25 01:43:00,15.6,3.1,30.40,West,263,1.0,13.0,57,0.00,,---,0.00,VWS V14.00,2013-01-25 06:43:00,
2013-01-25 01:48:00,15.6,3.1,30.41,WNW,290,5.0,9.0,57,0.00,,---,0.00,VWS V14.00,2013-01-25 06:48:00,
2013-01-25 01:53:00,15.5,3.0,30.41,WNW,300,5.0,10.0,57,0.00,,---,0.00,VWS V14.00,2013-01-25 06:53:00,
2013-01-25 01:58:00,15.5,3.4,30.41,NW,323,8.0,11.0,58,0.00,,---,0.00,VWS V14.00,2013-01-25 06:58:00,
2013-01-25 02:03:00,15.4,3.3,30.41,NNW,330,6.0,11.0,58,0.00,,---,0.00,VWS V14.00,2013-01-25 07:03:00,
2013-01-25 02:08:00,15.3,3.2,30.41,NW,311,8.0,11.0,58,0.00,,---,0.00,VWS V14.00,2013-01-25 07:08:00,
2013-01-25 02:13:00,15.3,3.2,30.41,West,264,7.0,18.0,58,0.00,,---,0.00,VWS V14.00,2013-01-25 07:13:00,
2013-01-25 02:18:00,15.3,3.2,30.41,NW,320,4.0,10.0,58,0.00,,---,0.00,VWS V14.00,2013-01-25 07:18:00,
2013-01-25 02:23:00,15.3,3.5,30.41,NNW,330,12.0,13.0,59,0.00,,---,0.00,VWS V14.00,2013-01-25 07:23:00,
2013-01-25 02:28:00,15.2,3.5,30.41,WNW,303,6.0,9.0,59,0.00,,---,0.00,VWS V14.00,2013-01-25 07:28:00,
2013-01-25 02:33:00,15.2,3.5,30.41,NW,317,6.0,10.0,59,0.00,,---,0.00,VWS V14.00,2013-01-25 07:33:00,
2013-01-25 02:38:00,15.2,3.5,30.41,NW,325,7.0,16.0,59,0.00,,---,0.00,VWS V14.00,2013-01-25 07:38:00,
2013-01-25 02:43:00,15.2,3.8,30.41,NW,321,7.0,10.0,60,0.00,,---,0.00,VWS V14.00,2013-01-25 07:43:00,
2013-01-25 02:48:00,15.2,3.8,30.41,WNW,299,6.0,15.0,60,0.00,,---,0.00,VWS V14.00,2013-01-25 07:48:00,
2013-01-25 02:53:00,15.2,4.2,30.41,NW,321,2.0,11.0,61,0.00,,---,0.00,VWS V14.00,2013-01-25 07:53:00,
2013-01-25 02:58:00,15.2,4.2,30.41,NW,318,3.0,6.0,61,0.00,,---,0.00,VWS V14.00,2013-01-25 07:58:00,
2013-01-25 03:03:00,15.1,4.1,30.41,NNW,332,5.0,12.0,61,0.00,,---,0.00,VWS V14.00,2013-01-25 08:03:00,
2013-01-25 03:08:00,15.1,4.1,30.40,NW,309,6.0,9.0,61,0.00,,---,0.00,VWS V14.00,2013-01-25 08:08:00,
2013-01-25 03:13:00,15.1,4.1,30.41,NW,315,4.0,12.0,61,0.00,,---,0.00,VWS V14.00,2013-01-25 08:13:00,
2013-01-25 03:18:00,15.0,4.3,30.40,NNW,340,4.0,8.0,62,0.00,,---,0.00,VWS V14.00,2013-01-25 08:18:00,
2013-01-25 03:23:00,15.0,4.3,30.40,NW,325,4.0,9.0,62,0.00,,---,0.00,VWS V14.00,2013-01-25 08:23:00,
2013-01-25 03:28:00,15.0,4.3,30.40,North,357,2.0,7.0,62,0.00,,---,0.00,VWS V14.00,2013-01-25 08:28:00,
2013-01-25 03:33:00,14.9,4.2,30.40,North,359,5.0,7.0,62,0.00,,---,0.00,VWS V14.00,2013-01-25 08:33:00,
2013-01-25 03:38:00,14.9,4.6,30.41,NW,321,4.0,6.0,63,0.00,,---,0.00,VWS V14.00,2013-01-25 08:38:00,
2013-01-25 03:43:00,14.9,4.6,30.41,North,5,1.0,6.0,63,0.00,,---,0.00,VWS V14.00,2013-01-25 08:43:00,
2013-01-25 03:48:00,14.8,4.5,30.41,NW,313,4.0,7.0,63,0.00,,---,0.00,VWS V14.00,2013-01-25 08:48:00,
2013-01-25 03:53:00,14.8,4.5,30.42,WNW,298,3.0,5.0,63,0.00,,---,0.00,VWS V14.00,2013-01-25 08:53:00,
2013-01-25 03:58:00,14.7,4.8,30.42,NW,308,2.0,5.0,64,0.00,,---,0.00,VWS V14.00,2013-01-25 08:58:00,
2013-01-25 04:03:00,14.6,4.7,30.41,West,273,2.0,4.0,64,0.00,,---,0.00,VWS V14.00,2013-01-25 09:03:00,
2013-01-25 04:08:00,14.5,4.6,30.41,West,272,6.0,6.0,64,0.00,,---,0.00,VWS V14.00,2013-01-25 09:08:00,
2013-01-25 04:13:00,14.4,4.5,30.42,NW,309,1.0,5.0,64,0.00,,---,0.00,VWS V14.00,2013-01-25 09:13:00,
2013-01-25 04:18:00,14.4,4.5,30.42,WNW,300,2.0,5.0,64,0.00,,---,0.00,VWS V14.00,2013-01-25 09:18:00,
2013-01-25 04:23:00,14.4,4.5,30.42,West,267,1.0,6.0,64,0.00,,---,0.00,VWS V14.00,2013-01-25 09:23:00,
2013-01-25 04:28:00,14.4,4.8,30.41,West,274,2.0,4.0,65,0.00,,---,0.00,VWS V14.00,2013-01-25 09:28:00,
2013-01-25 04:33:00,14.3,4.7,30.41,NW,326,0.0,8.0,65,0.00,,---,0.00,VWS V14.00,2013-01-25 09:33:00,
2013-01-25 04:38:00,14.3,4.7,30.41,NW,314,1.0,4.0,65,0.00,,---,0.00,VWS V14.00,2013-01-25 09:38:00,
2013-01-25 04:43:00,14.2,4.6,30.42,NW,313,0.0,3.0,65,0.00,,---,0.00,VWS V14.00,2013-01-25 09:43:00,
2013-01-25 04:48:00,14.1,4.5,30.42,NW,311,1.0,3.0,65,0.00,,---,0.00,VWS V14.00,2013-01-25 09:48:00,
2013-01-25 04:53:00,14.0,4.4,30.41,NW,311,2.0,4.0,65,0.00,,---,0.00,VWS V14.00,2013-01-25 09:53:00,
2013-01-25 04:58:00,13.9,4.3,30.42,NW,310,1.0,4.0,65,0.00,,---,0.00,VWS V14.00,2013-01-25 09:58:00,
2013-01-25 05:03:00,13.9,4.7,30.42,NNW,342,2.0,3.0,66,0.00,,---,0.00,VWS V14.00,2013-01-25 10:03:00,
2013-01-25 05:08:00,13.9,4.7,30.41,NNW,342,0.0,2.0,66,0.00,,---,0.00,VWS V14.00,2013-01-25 10:08:00,
2013-01-25 05:13:00,13.8,4.6,30.41,NNW,342,0.0,2.0,66,0.00,,---,0.00,VWS V14.00,2013-01-25 10:13:00,
2013-01-25 05:18:00,13.7,4.5,30.41,NNW,337,2.0,3.0,66,0.00,,---,0.00,VWS V14.00,2013-01-25 10:18:00,
2013-01-25 05:23:00,13.6,6.3,30.42,NNW,337,0.0,2.0,72,0.00,,---,0.00,VWS V14.00,2013-01-25 10:23:00,
2013-01-25 05:28:00,13.5,3.9,30.42,NNW,337,1.0,3.0,65,0.00,,---,0.00,VWS V14.00,2013-01-25 10:28:00,
2013-01-25 05:33:00,13.5,4.3,30.42,NNW,337,2.0,2.0,66,0.00,,---,0.00,VWS V14.00,2013-01-25 10:33:00,
2013-01-25 05:38:00,13.4,4.2,30.41,NNW,336,0.0,3.0,66,0.00,,---,0.00,VWS V14.00,2013-01-25 10:38:00,
2013-01-25 05:43:00,13.3,4.1,30.42,NNW,336,0.0,2.0,66,0.00,,---,0.00,VWS V14.00,2013-01-25 10:43:00,
2013-01-25 05:48:00,13.2,4.0,30.42,NNW,336,0.0,2.0,66,0.00,,---,0.00,VWS V14.00,2013-01-25 10:48:00,
2013-01-25 05:53:00,13.2,4.0,30.42,NNW,336,0.0,0.0,66,0.00,,---,0.00,VWS V14.00,2013-01-25 10:53:00,
2013-01-25 05:58:00,13.1,3.9,30.42,NNW,336,0.0,3.0,66,0.00,,---,0.00,VWS V14.00,2013-01-25 10:58:00,
2013-01-25 06:03:00,13.0,3.8,30.42,NNW,336,0.0,2.0,66,0.00,,---,0.00,VWS V14.00,2013-01-25 11:03:00,
2013-01-25 06:08:00,13.0,3.8,30.42,NNW,334,1.0,3.0,66,0.00,,---,0.00,VWS V14.00,2013-01-25 11:08:00,
2013-01-25 06:13:00,13.0,4.1,30.42,NNW,334,1.0,2.0,67,0.00,,---,0.00,VWS V14.00,2013-01-25 11:13:00,
2013-01-25 06:18:00,13.1,4.2,30.42,NW,319,0.0,4.0,67,0.00,,---,0.00,VWS V14.00,2013-01-25 11:18:00,
2013-01-25 06:23:00,13.1,4.2,30.42,NW,310,1.0,3.0,67,0.00,,---,0.00,VWS V14.00,2013-01-25 11:23:00,
2013-01-25 06:28:00,13.2,4.3,30.42,WNW,291,1.0,2.0,67,0.00,,---,0.00,VWS V14.00,2013-01-25 11:28:00,
2013-01-25 06:33:00,13.2,4.3,30.42,West,281,1.0,5.0,67,0.00,,---,0.00,VWS V14.00,2013-01-25 11:33:00,
2013-01-25 06:38:00,13.3,4.4,30.42,West,279,0.0,3.0,67,0.00,,---,0.00,VWS V14.00,2013-01-25 11:38:00,
2013-01-25 06:43:00,13.3,4.4,30.42,West,278,0.0,2.0,67,0.00,,---,0.00,VWS V14.00,2013-01-25 11:43:00,
2013-01-25 06:48:00,13.4,4.5,30.42,West,280,2.0,5.0,67,0.00,,---,0.00,VWS V14.00,2013-01-25 11:48:00,
2013-01-25 06:53:00,13.4,4.5,30.43,West,275,4.0,5.0,67,0.00,,---,0.00,VWS V14.00,2013-01-25 11:53:00,
2013-01-25 06:58:00,13.4,4.5,30.43,West,271,4.0,4.0,67,0.00,,---,0.00,VWS V14.00,2013-01-25 11:58:00,
2013-01-25 07:03:00,13.5,4.6,30.43,West,271,2.0,4.0,67,0.00,,---,0.00,VWS V14.00,2013-01-25 12:03:00,
2013-01-25 07:08:00,13.6,4.7,30.43,West,272,2.0,4.0,67,0.00,,---,0.00,VWS V14.00,2013-01-25 12:08:00,
2013-01-25 07:13:00,13.7,4.8,30.43,West,272,0.0,4.0,67,0.00,,---,0.00,VWS V14.00,2013-01-25 12:13:00,
2013-01-25 07:18:00,13.7,4.8,30.43,SW,230,0.0,8.0,67,0.00,,---,0.00,VWS V14.00,2013-01-25 12:18:00,
2013-01-25 07:23:00,13.8,4.9,30.43,SW,232,0.0,3.0,67,0.00,,---,0.00,VWS V14.00,2013-01-25 12:23:00,
2013-01-25 07:28:00,13.9,5.0,30.43,SW,232,0.0,1.0,67,0.00,,---,0.00,VWS V14.00,2013-01-25 12:28:00,
2013-01-25 07:33:00,13.9,5.0,30.42,SW,232,0.0,3.0,67,0.00,,---,0.00,VWS V14.00,2013-01-25 12:33:00,
2013-01-25 07:38:00,14.0,5.1,30.42,SW,236,3.0,4.0,67,0.00,,---,0.00,VWS V14.00,2013-01-25 12:38:00,
2013-01-25 07:43:00,14.1,5.2,30.42,WSW,240,1.0,4.0,67,0.00,,---,0.00,VWS V14.00,2013-01-25 12:43:00,
2013-01-25 07:48:00,14.2,5.3,30.42,WSW,240,1.0,2.0,67,0.00,,---,0.00,VWS V14.00,2013-01-25 12:48:00,
2013-01-25 07:53:00,14.3,5.4,30.42,WSW,240,1.0,3.0,67,0.00,,---,0.00,VWS V14.00,2013-01-25 12:53:00,
2013-01-25 07:58:00,14.4,5.5,30.41,WSW,240,3.0,3.0,67,0.00,,---,0.00,VWS V14.00,2013-01-25 12:58:00,
2013-01-25 08:03:00,14.5,5.6,30.41,WSW,240,0.0,1.0,67,0.00,,---,0.00,VWS V14.00,2013-01-25 13:03:00,
2013-01-25 08:08:00,14.6,5.7,30.41,WSW,240,1.0,3.0,67,0.00,,---,0.00,VWS V14.00,2013-01-25 13:08:00,
2013-01-25 08:13:00,14.8,5.8,30.41,WSW,255,4.0,5.0,67,0.00,,---,0.00,VWS V14.00,2013-01-25 13:13:00,
2013-01-25 08:18:00,15.0,6.0,30.40,WSW,257,0.0,3.0,67,0.00,,---,0.00,VWS V14.00,2013-01-25 13:18:00,
2013-01-25 08:23:00,15.2,6.2,30.41,WSW,257,0.0,2.0,67,0.00,,---,0.00,VWS V14.00,2013-01-25 13:23:00,
2013-01-25 08:28:00,15.3,6.3,30.41,WSW,257,0.0,2.0,67,0.00,,---,0.00,VWS V14.00,2013-01-25 13:28:00,
2013-01-25 08:33:00,15.5,6.5,30.41,WSW,257,4.0,4.0,67,0.00,,---,0.00,VWS V14.00,2013-01-25 13:33:00,
2013-01-25 08:38:00,15.7,6.7,30.41,WSW,258,0.0,3.0,67,0.00,,---,0.00,VWS V14.00,2013-01-25 13:38:00,
2013-01-25 08:43:00,15.9,6.9,30.41,WSW,258,1.0,4.0,67,0.00,,---,0.00,VWS V14.00,2013-01-25 13:43:00,
2013-01-25 08:48:00,16.2,7.2,30.41,West,260,2.0,6.0,67,0.00,,---,0.00,VWS V14.00,2013-01-25 13:48:00,
2013-01-25 08:53:00,16.4,7.4,30.41,NW,320,2.0,7.0,67,0.00,,---,0.00,VWS V14.00,2013-01-25 13:53:00,
2013-01-25 08:58:00,16.7,7.3,30.42,NNW,336,5.0,7.0,66,0.00,,---,0.00,VWS V14.00,2013-01-25 13:58:00,
2013-01-25 09:02:00,16.9,7.5,30.42,NW,309,3.0,9.0,66,0.00,,---,0.00,VWS V14.00,2013-01-25 14:02:00,
2013-01-25 09:07:00,17.0,7.3,30.42,WNW,289,2.0,7.0,65,0.00,,---,0.00,VWS V14.00,2013-01-25 14:07:00,
2013-01-25 09:12:00,17.1,7.0,30.41,WNW,289,5.0,11.0,64,0.00,,---,0.00,VWS V14.00,2013-01-25 14:12:00,
2013-01-25 09:17:00,17.1,7.0,30.42,WNW,288,3.0,10.0,64,0.00,,---,0.00,VWS V14.00,2013-01-25 14:17:00,
2013-01-25 09:22:00,17.1,6.7,30.42,WNW,303,5.0,10.0,63,0.00,,---,0.00,VWS V14.00,2013-01-25 14:22:00,
2013-01-25 09:27:00,17.1,6.7,30.42,NW,307,5.0,7.0,63,0.00,,---,0.00,VWS V14.00,2013-01-25 14:27:00,
2013-01-25 09:32:00,17.3,6.9,30.43,NW,314,2.0,8.0,63,0.00,,---,0.00,VWS V14.00,2013-01-25 14:32:00,
2013-01-25 09:37:00,17.5,7.1,30.42,NNW,327,7.0,9.0,63,0.00,,---,0.00,VWS V14.00,2013-01-25 14:37:00,
2013-01-25 09:42:00,17.5,6.7,30.42,NW,313,7.0,8.0,62,0.00,,---,0.00,VWS V14.00,2013-01-25 14:42:00,
2013-01-25 09:47:00,17.7,6.6,30.42,NNW,332,5.0,9.0,61,0.00,,---,0.00,VWS V14.00,2013-01-25 14:47:00,
2013-01-25 09:52:00,17.6,6.4,30.42,NW,317,5.0,9.0,61,0.00,,---,0.00,VWS V14.00,2013-01-25 14:52:00,
2013-01-25 09:57:00,17.6,6.4,30.42,North,354,5.0,7.0,61,0.00,,---,0.00,VWS V14.00,2013-01-25 14:57:00,
2013-01-25 10:02:00,17.8,7.0,30.42,North,352,6.0,7.0,62,0.00,,---,0.00,VWS V14.00,2013-01-25 15:02:00,
2013-01-25 10:07:00,18.1,7.3,30.42,NNW,336,4.0,7.0,62,0.00,,---,0.00,VWS V14.00,2013-01-25 15:07:00,
2013-01-25 10:12:00,18.3,7.1,30.42,WNW,302,3.0,8.0,61,0.00,,---,0.00,VWS V14.00,2013-01-25 15:12:00,
2013-01-25 10:17:00,18.5,7.3,30.42,West,267,4.0,4.0,61,0.00,,---,0.00,VWS V14.00,2013-01-25 15:17:00,
2013-01-25 10:22:00,18.9,7.7,30.43,North,357,6.0,8.0,61,0.00,,---,0.00,VWS V14.00,2013-01-25 15:22:00,
2013-01-25 10:27:00,19.1,7.5,30.43,NNW,338,3.0,4.0,60,0.00,,---,0.00,VWS V14.00,2013-01-25 15:27:00,
2013-01-25 10:32:00,19.4,7.8,30.43,NW,304,4.0,6.0,60,0.00,,---,0.00,VWS V14.00,2013-01-25 15:32:00,
2013-01-25 10:37:00,19.7,8.1,30.42,NW,311,1.0,4.0,60,0.00,,---,0.00,VWS V14.00,2013-01-25 15:37:00,
2013-01-25 10:42:00,19.9,7.9,30.42,NW,314,5.0,7.0,59,0.00,,---,0.00,VWS V14.00,2013-01-25 15:42:00,
2013-01-25 10:47:00,19.9,7.9,30.41,NW,318,3.0,6.0,59,0.00,,---,0.00,VWS V14.00,2013-01-25 15:47:00,
2013-01-25 10:52:00,20.0,7.6,30.41,NNE,17,0.0,6.0,58,0.00,,---,0.00,VWS V14.00,2013-01-25 15:52:00,
2013-01-25 10:57:00,20.4,7.6,30.41,NNW,344,4.0,8.0,57,0.00,,---,0.00,VWS V14.00,2013-01-25 15:57:00,
2013-01-25 11:02:00,20.4,7.6,30.40,West,269,2.0,4.0,57,0.00,,---,0.00,VWS V14.00,2013-01-25 16:02:00,
2013-01-25 11:07:00,20.3,7.5,30.40,WNW,288,1.0,5.0,57,0.00,,---,0.00,VWS V14.00,2013-01-25 16:07:00,
2013-01-25 11:12:00,20.6,9.3,30.40,North,357,2.0,7.0,61,0.00,,---,0.00,VWS V14.00,2013-01-25 16:12:00,
2013-01-25 11:17:00,20.8,7.6,30.39,North,350,4.0,7.0,56,0.00,,---,0.00,VWS V14.00,2013-01-25 16:17:00,
2013-01-25 11:22:00,20.7,7.5,30.39,West,262,2.0,8.0,56,0.00,,---,0.00,VWS V14.00,2013-01-25 16:22:00,
2013-01-25 11:27:00,20.7,7.9,30.38,West,260,4.0,5.0,57,0.00,,---,0.00,VWS V14.00,2013-01-25 16:27:00,
2013-01-25 11:32:00,20.9,7.7,30.37,WSW,244,2.0,6.0,56,0.00,,---,0.00,VWS V14.00,2013-01-25 16:32:00,
2013-01-25 11:37:00,21.5,8.2,30.37,NW,313,2.0,5.0,56,0.00,,---,0.00,VWS V14.00,2013-01-25 16:37:00,
2013-01-25 11:42:00,21.6,7.9,30.36,NNW,329,4.0,4.0,55,0.00,,---,0.00,VWS V14.00,2013-01-25 16:42:00,
2013-01-25 11:47:00,22.0,8.3,30.36,North,5,4.0,6.0,55,0.00,,---,0.00,VWS V14.00,2013-01-25 16:47:00,
2013-01-25 11:52:00,21.9,7.8,30.35,North,11,0.0,2.0,54,0.00,,---,0.00,VWS V14.00,2013-01-25 16:52:00,
2013-01-25 11:57:00,22.7,7.7,30.35,NNW,340,1.0,7.0,52,0.00,,---,0.00,VWS V14.00,2013-01-25 16:57:00,
2013-01-25 12:02:00,22.5,7.5,30.35,WSW,248,1.0,4.0,52,0.00,,---,0.00,VWS V14.00,2013-01-25 17:02:00,
2013-01-25 12:07:00,22.7,7.3,30.35,West,280,0.0,6.0,51,0.00,,---,0.00,VWS V14.00,2013-01-25 17:07:00,
2013-01-25 12:12:00,22.5,6.7,30.34,NNW,328,0.0,1.0,50,0.00,,---,0.00,VWS V14.00,2013-01-25 17:12:00,
2013-01-25 12:17:00,23.3,7.4,30.33,NNE,15,0.0,4.0,50,0.00,,---,0.00,VWS V14.00,2013-01-25 17:17:00,
2013-01-25 12:22:00,23.6,6.8,30.33,NW,319,3.0,5.0,48,0.00,,---,0.00,VWS V14.00,2013-01-25 17:22:00,
2013-01-25 12:27:00,23.9,7.1,30.33,North,8,3.0,7.0,48,0.00,,---,0.00,VWS V14.00,2013-01-25 17:27:00,
2013-01-25 12:32:00,23.5,6.2,30.32,NNE,18,0.0,3.0,47,0.00,,---,0.00,VWS V14.00,2013-01-25 17:32:00,
2013-01-25 12:37:00,23.6,6.8,30.32,NNE,19,2.0,2.0,48,0.00,,---,0.00,VWS V14.00,2013-01-25 17:37:00,
2013-01-25 12:42:00,24.3,7.9,30.32,NNE,28,0.0,5.0,49,0.00,,---,0.00,VWS V14.00,2013-01-25 17:42:00,
2013-01-25 12:47:00,24.7,7.8,30.32,NNE,28,1.0,2.0,48,0.00,,---,0.00,VWS V14.00,2013-01-25 17:47:00,
2013-01-25 12:52:00,24.8,6.5,30.32,NNE,17,0.0,5.0,45,0.00,,---,0.00,VWS V14.00,2013-01-25 17:52:00,
2013-01-25 12:57:00,24.8,6.5,30.31,North,357,5.0,6.0,45,0.00,,---,0.00,VWS V14.00,2013-01-25 17:57:00,
2013-01-25 13:02:00,24.6,5.8,30.30,North,359,3.0,5.0,44,0.00,,---,0.00,VWS V14.00,2013-01-25 18:02:00,
2013-01-25 13:07:00,24.5,6.2,30.31,North,3,2.0,3.0,45,0.00,,---,0.00,VWS V14.00,2013-01-25 18:07:00,
2013-01-25 13:12:00,24.5,6.2,30.30,NNE,14,1.0,4.0,45,0.00,,---,0.00,VWS V14.00,2013-01-25 18:12:00,
2013-01-25 13:17:00,24.6,5.8,30.30,NNE,15,0.0,0.0,44,0.00,,---,0.00,VWS V14.00,2013-01-25 18:17:00,
2013-01-25 13:22:00,24.9,6.6,30.30,NNE,15,0.0,0.0,45,0.00,,---,0.00,VWS V14.00,2013-01-25 18:22:00,
2013-01-25 13:27:00,25.2,6.8,30.29,NNE,15,0.0,3.0,45,0.00,,---,0.00,VWS V14.00,2013-01-25 18:27:00,
2013-01-25 13:32:00,25.3,6.4,30.29,NNE,15,0.0,3.0,44,0.00,,---,0.00,VWS V14.00,2013-01-25 18:32:00,
2013-01-25 13:37:00,25.4,6.5,30.29,North,350,2.0,4.0,44,0.00,,---,0.00,VWS V14.00,2013-01-25 18:37:00,
2013-01-25 13:42:00,25.6,6.7,30.28,North,350,0.0,1.0,44,0.00,,---,0.00,VWS V14.00,2013-01-25 18:42:00,
2013-01-25 13:47:00,25.8,6.4,30.28,NNW,332,0.0,3.0,43,0.00,,---,0.00,VWS V14.00,2013-01-25 18:47:00,
2013-01-25 13:52:00,25.7,6.3,30.28,NNW,331,0.0,3.0,43,0.00,,---,0.00,VWS V14.00,2013-01-25 18:52:00,
2013-01-25 13:57:00,25.6,5.7,30.27,NNW,329,3.0,4.0,42,0.00,,---,0.00,VWS V14.00,2013-01-25 18:57:00,
2013-01-25 14:02:00,25.6,6.7,30.27,ESE,116,3.0,4.0,44,0.00,,---,0.00,VWS V14.00,2013-01-25 19:02:00,
2013-01-25 14:07:00,25.8,6.4,30.27,ESE,115,3.0,3.0,43,0.00,,---,0.00,VWS V14.00,2013-01-25 19:07:00,
2013-01-25 14:12:00,25.9,6.5,30.27,ESE,115,0.0,1.0,43,0.00,,---,0.00,VWS V14.00,2013-01-25 19:12:00,
2013-01-25 14:17:00,25.8,5.9,30.26,ESE,115,0.0,4.0,42,0.00,,---,0.00,VWS V14.00,2013-01-25 19:17:00,
2013-01-25 14:22:00,25.7,6.3,30.26,SE,141,0.0,6.0,43,0.00,,---,0.00,VWS V14.00,2013-01-25 19:22:00,
2013-01-25 14:27:00,25.6,6.7,30.26,SE,142,2.0,5.0,44,0.00,,---,0.00,VWS V14.00,2013-01-25 19:27:00,
2013-01-25 14:32:00,25.5,6.1,30.26,South,186,6.0,7.0,43,0.00,,---,0.00,VWS V14.00,2013-01-25 19:32:00,
2013-01-25 14:37:00,25.6,5.7,30.26,SSW,211,5.0,7.0,42,0.00,,---,0.00,VWS V14.00,2013-01-25 19:37:00,
2013-01-25 14:42:00,25.6,6.2,30.26,SSW,197,1.0,5.0,43,0.00,,---,0.00,VWS V14.00,2013-01-25 19:42:00,
2013-01-25 14:47:00,25.8,6.4,30.26,SSW,197,0.0,0.0,43,0.00,,---,0.00,VWS V14.00,2013-01-25 19:47:00,
2013-01-25 14:52:00,25.8,5.4,30.25,SSW,212,8.0,8.0,41,0.00,,---,0.00,VWS V14.00,2013-01-25 19:52:00,
2013-01-25 14:57:00,25.8,5.9,30.25,SSW,211,2.0,7.0,42,0.00,,---,0.00,VWS V14.00,2013-01-25 19:57:00,
2013-01-25 15:02:00,25.8,5.4,30.25,SSW,213,0.0,5.0,41,0.00,,---,0.00,VWS V14.00,2013-01-25 20:02:00,
2013-01-25 15:07:00,25.7,5.3,30.25,SSW,212,4.0,5.0,41,0.00,,---,0.00,VWS V14.00,2013-01-25 20:07:00,
2013-01-25 15:12:00,25.6,5.7,30.25,SSW,192,4.0,4.0,42,0.00,,---,0.00,VWS V14.00,2013-01-25 20:12:00,
2013-01-25 15:17:00,25.7,5.8,30.24,SSW,194,5.0,6.0,42,0.00,,---,0.00,VWS V14.00,2013-01-25 20:17:00,
2013-01-25 15:22:00,25.6,5.2,30.24,SSW,198,2.0,6.0,41,0.00,,---,0.00,VWS V14.00,2013-01-25 20:22:00,
2013-01-25 15:27:00,25.6,5.2,30.24,SSW,200,4.0,6.0,41,0.00,,---,0.00,VWS V14.00,2013-01-25 20:27:00,
2013-01-25 15:32:00,25.6,5.2,30.24,SSW,213,4.0,7.0,41,0.00,,---,0.00,VWS V14.00,2013-01-25 20:32:00,
2013-01-25 15:37:00,25.5,5.1,30.24,SSW,213,2.0,6.0,41,0.00,,---,0.00,VWS V14.00,2013-01-25 20:37:00,
2013-01-25 15:42:00,25.4,5.5,30.24,SW,224,4.0,6.0,42,0.00,,---,0.00,VWS V14.00,2013-01-25 20:42:00,
2013-01-25 15:47:00,25.3,5.9,30.24,SW,225,1.0,5.0,43,0.00,,---,0.00,VWS V14.00,2013-01-25 20:47:00,
2013-01-25 15:52:00,25.2,6.8,30.24,SW,217,6.0,7.0,45,0.00,,---,0.00,VWS V14.00,2013-01-25 20:52:00,
2013-01-25 15:57:00,25.0,7.2,30.23,SSW,205,5.0,7.0,46,0.00,,---,0.00,VWS V14.00,2013-01-25 20:57:00,
2013-01-25 16:02:00,25.0,7.6,30.24,SSW,211,4.0,7.0,47,0.00,,---,0.00,VWS V14.00,2013-01-25 21:02:00,
2013-01-25 16:07:00,24.8,7.4,30.23,SSW,209,4.0,7.0,47,0.00,,---,0.00,VWS V14.00,2013-01-25 21:07:00,
2013-01-25 16:12:00,24.7,7.3,30.24,SSW,209,5.0,7.0,47,0.00,,---,0.00,VWS V14.00,2013-01-25 21:12:00,
2013-01-25 16:17:00,24.6,7.3,30.24,SSW,208,7.0,7.0,47,0.00,,---,0.00,VWS V14.00,2013-01-25 21:17:00,
2013-01-25 16:22:00,24.4,6.6,30.24,SSW,213,5.0,9.0,46,0.00,,---,0.00,VWS V14.00,2013-01-25 21:22:00,
2013-01-25 16:27:00,24.2,6.4,30.24,SSW,200,7.0,9.0,46,0.00,,---,0.00,VWS V14.00,2013-01-25 21:27:00,
2013-01-25 16:32:00,24.0,6.7,30.23,SSW,213,6.0,9.0,47,0.00,,---,0.00,VWS V14.00,2013-01-25 21:32:00,
2013-01-25 16:37:00,23.9,6.6,30.23,SSW,201,7.0,8.0,47,0.00,,---,0.00,VWS V14.00,2013-01-25 21:37:00,
2013-01-25 16:42:00,23.8,7.0,30.22,SW,217,4.0,9.0,48,0.00,,---,0.00,VWS V14.00,2013-01-25 21:42:00,
2013-01-25 16:47:00,23.7,7.3,30.22,SSW,211,5.0,7.0,49,0.00,,---,0.00,VWS V14.00,2013-01-25 21:47:00,
2013-01-25 16:52:00,23.7,7.8,30.22,SSW,211,2.0,8.0,50,0.00,,---,0.00,VWS V14.00,2013-01-25 21:52:00,
2013-01-25 16:57:00,23.6,8.1,30.22,SW,219,5.0,7.0,51,0.00,,---,0.00,VWS V14.00,2013-01-25 21:57:00,
2013-01-25 17:02:00,23.5,8.5,30.22,SW,218,2.0,5.0,52,0.00,,---,0.00,VWS V14.00,2013-01-25 22:02:00,
2013-01-25 17:07:00,23.5,8.5,30.22,SW,217,1.0,6.0,52,0.00,,---,0.00,VWS V14.00,2013-01-25 22:07:00,
2013-01-25 17:12:00,23.5,8.5,30.22,SW,215,0.0,6.0,52,0.00,,---,0.00,VWS V14.00,2013-01-25 22:12:00,
2013-01-25 17:17:00,23.6,9.0,30.21,SW,217,1.0,2.0,53,0.00,,---,0.00,VWS V14.00,2013-01-25 22:17:00,
2013-01-25 17:22:00,23.6,9.4,30.21,SSW,212,2.0,7.0,54,0.00,,---,0.00,VWS V14.00,2013-01-25 22:22:00,
2013-01-25 17:27:00,23.6,9.8,30.21,SSW,213,0.0,2.0,55,0.00,,---,0.00,VWS V14.00,2013-01-25 22:27:00,
2013-01-25 17:32:00,23.6,9.8,30.20,SSW,213,0.0,2.0,55,0.00,,---,0.00,VWS V14.00,2013-01-25 22:32:00,
2013-01-25 17:37:00,23.6,10.2,30.21,SW,215,5.0,6.0,56,0.00,,---,0.00,VWS V14.00,2013-01-25 22:37:00,
2013-01-25 17:42:00,23.6,10.6,30.20,SW,215,2.0,5.0,57,0.00,,---,0.00,VWS V14.00,2013-01-25 22:42:00,
2013-01-25 17:47:00,23.6,11.0,30.21,SW,216,0.0,6.0,58,0.00,,---,0.00,VWS V14.00,2013-01-25 22:47:00,
2013-01-25 17:52:00,23.6,12.5,30.20,SW,232,4.0,9.0,62,0.00,,---,0.00,VWS V14.00,2013-01-25 22:52:00,
2013-01-25 17:57:00,23.4,14.1,30.20,SW,220,6.0,12.0,67,0.00,,---,0.00,VWS V14.00,2013-01-25 22:57:00,
2013-01-25 18:02:00,23.1,14.8,30.20,SW,234,0.0,5.0,70,0.00,,---,0.00,VWS V14.00,2013-01-25 23:02:00,
2013-01-25 18:07:00,22.9,14.9,30.19,SW,228,0.0,3.0,71,0.00,,---,0.00,VWS V14.00,2013-01-25 23:07:00,
2013-01-25 18:12:00,22.7,15.1,30.19,SW,222,0.0,4.0,72,0.00,,---,0.00,VWS V14.00,2013-01-25 23:12:00,
2013-01-25 18:17:00,22.6,15.3,30.18,SW,223,0.0,4.0,73,0.00,,---,0.00,VWS V14.00,2013-01-25 23:17:00,
2013-01-25 18:22:00,22.5,15.5,30.17,SW,223,0.0,0.0,74,0.00,,---,0.00,VWS V14.00,2013-01-25 23:22:00,
2013-01-25 18:27:00,22.4,15.7,30.17,SW,223,0.0,0.0,75,0.00,,---,0.00,VWS V14.00,2013-01-25 23:27:00,
2013-01-25 18:32:00,22.3,15.9,30.17,SW,223,1.0,2.0,76,0.00,,---,0.00,VWS V14.00,2013-01-25 23:32:00,
2013-01-25 18:37:00,22.2,15.8,30.16,SW,223,0.0,0.0,76,0.00,,---,0.00,VWS V14.00,2013-01-25 23:37:00,
2013-01-25 18:42:00,22.1,16.0,30.16,SW,223,0.0,0.0,77,0.00,,---,0.00,VWS V14.00,2013-01-25 23:42:00,
2013-01-25 18:47:00,22.1,16.0,30.16,SW,223,0.0,0.0,77,0.00,,---,0.00,VWS V14.00,2013-01-25 23:47:00,
2013-01-25 18:52:00,22.0,16.2,30.16,SW,223,0.0,0.0,78,0.00,,---,0.00,VWS V14.00,2013-01-25 23:52:00,
2013-01-25 18:57:00,21.9,16.4,30.16,SW,223,0.0,2.0,79,0.00,,---,0.00,VWS V14.00,2013-01-25 23:57:00,
2013-01-25 19:02:00,21.8,16.3,30.16,SW,227,1.0,3.0,79,0.00,,---,0.00,VWS V14.00,2013-01-26 00:02:00,
2013-01-25 19:07:00,21.7,16.5,30.16,SW,228,2.0,2.0,80,0.00,,---,0.00,VWS V14.00,2013-01-26 00:07:00,
2013-01-25 19:12:00,21.6,16.4,30.15,SW,230,1.0,3.0,80,0.00,,---,0.00,VWS V14.00,2013-01-26 00:12:00,
2013-01-25 19:17:00,21.5,16.6,30.15,SW,236,0.0,3.0,81,0.00,,---,0.00,VWS V14.00,2013-01-26 00:17:00,
2013-01-25 19:22:00,21.4,16.5,30.15,SW,236,2.0,3.0,81,0.00,,---,0.00,VWS V14.00,2013-01-26 00:22:00,
2013-01-25 19:27:00,21.4,16.8,30.15,WSW,251,3.0,4.0,82,0.00,,---,0.00,VWS V14.00,2013-01-26 00:27:00,
2013-01-25 19:32:00,21.3,16.7,30.15,WSW,257,3.0,4.0,82,0.00,,---,0.00,VWS V14.00,2013-01-26 00:32:00,
2013-01-25 19:37:00,21.4,17.0,30.15,West,259,3.0,3.0,83,0.00,,---,0.00,VWS V14.00,2013-01-26 00:37:00,
2013-01-25 19:42:00,21.3,17.0,30.15,West,263,2.0,4.0,83,0.00,,---,0.00,VWS V14.00,2013-01-26 00:42:00,
2013-01-25 19:47:00,21.3,17.0,30.15,West,263,3.0,4.0,83,0.00,,---,0.00,VWS V14.00,2013-01-26 00:47:00,
2013-01-25 19:52:00,21.2,17.1,30.15,West,263,0.0,2.0,84,0.00,,---,0.00,VWS V14.00,2013-01-26 00:52:00,
2013-01-25 19:57:00,21.2,17.1,30.14,West,263,2.0,2.0,84,0.00,,---,0.00,VWS V14.00,2013-01-26 00:57:00,
2013-01-25 20:02:00,21.2,17.1,30.14,West,263,1.0,4.0,84,0.00,,---,0.00,VWS V14.00,2013-01-26 01:02:00,
2013-01-25 20:07:00,21.2,17.4,30.14,West,263,0.0,2.0,85,0.00,,---,0.00,VWS V14.00,2013-01-26 01:07:00,
2013-01-25 20:12:00,21.2,17.4,30.14,West,263,0.0,0.0,85,0.00,,---,0.00,VWS V14.00,2013-01-26 01:12:00,
2013-01-25 20:17:00,21.1,17.3,30.14,West,263,0.0,2.0,85,0.00,,---,0.00,VWS V14.00,2013-01-26 01:17:00,
2013-01-25 20:22:00,21.2,17.7,30.14,West,263,0.0,2.0,86,0.00,,---,0.00,VWS V14.00,2013-01-26 01:22:00,
2013-01-25 20:27:00,21.2,17.7,30.13,West,263,0.0,1.0,86,0.01,,---,0.01,VWS V14.00,2013-01-26 01:27:00,
2013-01-25 20:32:00,21.2,17.7,30.13,West,263,3.0,3.0,86,0.01,,---,0.01,VWS V14.00,2013-01-26 01:32:00,
2013-01-25 20:37:00,21.1,17.6,30.14,West,263,2.0,4.0,86,0.01,,---,0.01,VWS V14.00,2013-01-26 01:37:00,
2013-01-25 20:42:00,21.0,17.5,30.13,West,263,2.0,4.0,86,0.01,,---,0.01,VWS V14.00,2013-01-26 01:42:00,
2013-01-25 20:47:00,20.9,17.4,30.13,West,263,2.0,3.0,86,0.01,,---,0.01,VWS V14.00,2013-01-26 01:47:00,
2013-01-25 20:52:00,20.8,17.5,30.13,West,263,2.0,2.0,87,0.01,,---,0.01,VWS V14.00,2013-01-26 01:52:00,
2013-01-25 20:57:00,20.8,17.5,30.13,West,263,0.0,3.0,87,0.01,,---,0.01,VWS V14.00,2013-01-26 01:57:00,
2013-01-25 21:02:00,20.7,17.5,30.13,West,263,0.0,2.0,87,0.01,,---,0.01,VWS V14.00,2013-01-26 02:02:00,
2013-01-25 21:07:00,20.7,17.5,30.12,West,263,0.0,0.0,87,0.02,,---,0.02,VWS V14.00,2013-01-26 02:07:00,
2013-01-25 21:12:00,20.8,17.5,30.12,West,263,0.0,3.0,87,0.02,,---,0.02,VWS V14.00,2013-01-26 02:12:00,
2013-01-25 21:17:00,20.7,17.5,30.12,West,263,0.0,2.0,87,0.02,,---,0.02,VWS V14.00,2013-01-26 02:17:00,
2013-01-25 21:22:00,20.7,17.7,30.12,West,263,0.0,2.0,88,0.02,,---,0.02,VWS V14.00,2013-01-26 02:22:00,
2013-01-25 21:27:00,20.8,17.8,30.12,West,263,0.0,0.0,88,0.01,,---,0.02,VWS V14.00,2013-01-26 02:27:00,
2013-01-25 21:32:00,20.8,17.8,30.11,West,263,1.0,2.0,88,0.01,,---,0.02,VWS V14.00,2013-01-26 02:32:00,
2013-01-25 21:37:00,20.8,17.8,30.11,West,263,2.0,2.0,88,0.01,,---,0.02,VWS V14.00,2013-01-26 02:37:00,
2013-01-25 21:42:00,20.9,17.9,30.10,West,263,0.0,1.0,88,0.01,,---,0.02,VWS V14.00,2013-01-26 02:42:00,
2013-01-25 21:47:00,20.9,17.9,30.11,West,263,2.0,2.0,88,0.01,,---,0.02,VWS V14.00,2013-01-26 02:47:00,
2013-01-25 21:52:00,20.9,17.9,30.10,West,263,1.0,3.0,88,0.01,,---,0.02,VWS V14.00,2013-01-26 02:52:00,
2013-01-25 21:57:00,20.9,17.9,30.10,West,263,1.0,1.0,88,0.01,,---,0.02,VWS V14.00,2013-01-26 02:57:00,
2013-01-25 22:02:00,21.0,18.0,30.10,West,263,0.0,3.0,88,0.01,,---,0.02,VWS V14.00,2013-01-26 03:02:00,
2013-01-25 22:07:00,20.9,17.9,30.10,West,263,0.0,5.0,88,0.00,,---,0.02,VWS V14.00,2013-01-26 03:07:00,
2013-01-25 22:12:00,20.9,17.9,30.10,West,263,0.0,1.0,88,0.00,,---,0.02,VWS V14.00,2013-01-26 03:12:00,
2013-01-25 22:17:00,21.0,18.0,30.10,West,263,0.0,1.0,88,0.00,,---,0.02,VWS V14.00,2013-01-26 03:17:00,
2013-01-25 22:22:00,21.0,18.0,30.10,West,263,0.0,0.0,88,0.00,,---,0.02,VWS V14.00,2013-01-26 03:22:00,
2013-01-25 22:27:00,21.0,18.0,30.10,West,263,0.0,0.0,88,0.00,,---,0.02,VWS V14.00,2013-01-26 03:27:00,
2013-01-25 22:32:00,20.9,17.9,30.10,West,263,0.0,0.0,88,0.00,,---,0.02,VWS V14.00,2013-01-26 03:32:00,
2013-01-25 22:37:00,20.8,17.8,30.10,West,263,0.0,0.0,88,0.00,,---,0.02,VWS V14.00,2013-01-26 03:37:00,
2013-01-25 22:42:00,20.7,17.7,30.09,West,263,1.0,1.0,88,0.00,,---,0.02,VWS V14.00,2013-01-26 03:42:00,
2013-01-25 22:47:00,20.6,17.6,30.09,West,263,0.0,0.0,88,0.00,,---,0.02,VWS V14.00,2013-01-26 03:47:00,
2013-01-25 22:52:00,20.4,17.4,30.09,West,263,0.0,0.0,88,0.00,,---,0.02,VWS V14.00,2013-01-26 03:52:00,
2013-01-25 22:57:00,20.2,17.2,30.09,West,263,0.0,0.0,88,0.00,,---,0.02,VWS V14.00,2013-01-26 03:57:00,
2013-01-25 23:02:00,19.9,16.9,30.09,West,264,0.0,4.0,88,0.00,,---,0.02,VWS V14.00,2013-01-26 04:02:00,
2013-01-25 23:07:00,19.8,16.8,30.09,West,273,2.0,4.0,88,0.00,,---,0.02,VWS V14.00,2013-01-26 04:07:00,
2013-01-25 23:12:00,19.7,16.7,30.09,West,273,0.0,3.0,88,0.00,,---,0.02,VWS V14.00,2013-01-26 04:12:00,
2013-01-25 23:17:00,19.6,16.6,30.09,West,273,0.0,4.0,88,0.00,,---,0.02,VWS V14.00,2013-01-26 04:17:00,
2013-01-25 23:22:00,19.5,16.5,30.09,West,273,0.0,0.0,88,0.00,,---,0.02,VWS V14.00,2013-01-26 04:22:00,
2013-01-25 23:27:00,19.4,16.4,30.09,West,273,0.0,0.0,88,0.00,,---,0.02,VWS V14.00,2013-01-26 04:27:00,
2013-01-25 23:32:00,19.4,16.4,30.09,West,273,0.0,0.0,88,0.00,,---,0.02,VWS V14.00,2013-01-26 04:32:00,
2013-01-25 23:37:00,19.3,16.3,30.09,West,273,0.0,0.0,88,0.00,,---,0.02,VWS V14.00,2013-01-26 04:37:00,
2013-01-25 23:42:00,19.2,16.2,30.09,West,273,0.0,0.0,88,0.00,,---,0.02,VWS V14.00,2013-01-26 04:42:00,
2013-01-25 23:47:00,19.1,16.1,30.09,West,273,0.0,0.0,88,0.00,,---,0.02,VWS V14.00,2013-01-26 04:47:00,
2013-01-25 23:52:00,19.0,16.0,30.09,West,273,0.0,3.0,88,0.00,,---,0.02,VWS V14.00,2013-01-26 04:52:00,
2013-01-25 23:57:00,18.9,15.9,30.09,West,273,2.0,3.0,88,0.00,,---,0.02,VWS V14.00,2013-01-26 04:57:00,